Zurück zum Katalog

STARLINK-35253

AktivKommunikationSSO
NORAD 65596·PAYLOAD·🇺🇸 United States

Gestartet Sep 13, 2025 von Cape Canaveral Space Force Station

Loading…

Nächste Überflüge (nächste 24 Stunden)

TLE

AktuellSource: CelesTrak SupGP

Epoche: Sep 14, 2026, 14:04 UTC

1 65596C 25207E   26257.58659722  .02308100  00000+0  13196+0 0  2572
2 65596  97.2844 320.2429 0001656  95.0874 300.4552 15.11609082    13

Verfolge STARLINK-35253 in Echtzeit mit AllMySat

Download on the App Store